DW8673 Jerrabomberra AU current weather conditions

sailwx.info

Wind from 294 at 1 knots gusting 5

Air temperature 30.6° C
Dewpoint 5.7° C

Last reported at 2015-Mar-04 01:43 UTC.
Time now 2015-Mar-04 02:51 UTC

Location: S 35°23' E 149°12'.
View on Google Maps.

See reports from other nearby stations

  
Tides and Currents Weather Stations Pressure Air Temp Water Temp Dewpoint Dewpoint Depression Visibility Wind Speed Wind Dir Waves Ship Positions
date/time (UTC)wind fromknots sea level pressurealtimeterstation pressurevisibilityair tempwater tempwave heightnotes
2015-Mar-04 01:43 294 1 gusting 5 30.6
2015-Mar-04 01:33 256 2 gusting 6 30.0
2015-Mar-04 01:13 297 1 gusting 4 29.4
2015-Mar-04 01:03 315 1 gusting 4 29.4
2015-Mar-04 00:43 030 2 gusting 5 28.3
2015-Mar-04 00:33 235 1 gusting 6 28.3
2015-Mar-04 00:13 046 1 gusting 4 27.2
2015-Mar-04 00:03 298 1 gusting 6 26.7
2015-Mar-03 23:43 318 0 gusting 4 26.7
2015-Mar-03 23:33 116 1 gusting 2 26.1
2015-Mar-03 23:13 253 1 gusting 2 25.6
2015-Mar-03 23:03 078 0 gusting 2 25.0
2015-Mar-03 22:43 108 1 gusting 2 23.9
2015-Mar-03 22:33 049 1 gusting 1 23.3
2015-Mar-03 22:13 21.1
2015-Mar-03 22:03 273 0 gusting 1 19.4
2015-Mar-03 21:43 281 19.4
2015-Mar-03 21:33 127 0 gusting 1 19.4
2015-Mar-03 21:13 240 0 gusting 1 18.9
2015-Mar-03 21:03 090 18.3
2015-Mar-03 20:43 068 17.8
2015-Mar-03 20:33 090 0 gusting 1 17.8
2015-Mar-03 20:13 090 0 gusting 0 17.2
2015-Mar-03 20:03 098 17.2
2015-Mar-03 19:43 17.2
2015-Mar-03 19:33 17.2
2015-Mar-03 19:13 17.2
2015-Mar-03 19:03 17.2
2015-Mar-03 18:43 270 17.2
2015-Mar-03 18:33 259 17.2
2015-Mar-03 18:13 270 17.2
2015-Mar-03 18:03 180 17.2
2015-Mar-03 17:43 202 17.2
2015-Mar-03 17:33 248 17.2
2015-Mar-03 17:13 248 0 gusting 0 17.2
2015-Mar-03 17:03 248 17.2
2015-Mar-03 16:43 251 17.2
2015-Mar-03 16:33 248 17.2
2015-Mar-03 16:13 248 17.2
2015-Mar-03 16:03 270 17.2
2015-Mar-03 15:43 292 0 gusting 0 17.2
2015-Mar-03 15:33 17.2
2015-Mar-03 15:13 248 17.2
2015-Mar-03 15:03 225 17.2
2015-Mar-03 14:43 315 17.2
2015-Mar-03 14:33 311 17.2
2015-Mar-03 14:13 270 16.7
2015-Mar-03 14:03 270 16.7
2015-Mar-03 13:43 292 16.1
2015-Mar-03 13:33 292 16.1
2015-Mar-03 13:13 248 0 gusting 0 16.1
2015-Mar-03 13:03 315 0 gusting 0 16.1
2015-Mar-03 12:43 315 0 gusting 0 16.7
2015-Mar-03 12:33 045 17.2
2015-Mar-03 12:13 112 0 gusting 0 17.2
2015-Mar-03 12:03 293 17.2
2015-Mar-03 11:43 241 17.8
2015-Mar-03 11:33 255 18.3
2015-Mar-03 11:13 076 1 gusting 4 18.3
2015-Mar-03 11:03 113 1 gusting 6 18.9
2015-Mar-03 10:43 114 0 gusting 4 18.9
2015-Mar-03 10:33 112 19.4
2015-Mar-03 10:13 116 20.0
2015-Mar-03 10:03 075 0 gusting 2 20.6
2015-Mar-03 09:43 095 0 gusting 2 21.1
2015-Mar-03 09:33 095 0 gusting 5 21.1
2015-Mar-03 09:13 092 2 gusting 5 22.2
2015-Mar-03 09:03 080 2 gusting 4 22.2
2015-Mar-03 08:43 125 2 gusting 6 23.9
2015-Mar-03 08:33 041 1 gusting 4 25.0
2015-Mar-03 08:13 026 1 gusting 1 27.2
2015-Mar-03 08:03 324 0 gusting 5 28.9
2015-Mar-03 07:43 251 1 gusting 5 28.9
2015-Mar-03 07:33 337 1 gusting 5 29.4
2015-Mar-03 07:13 282 1 gusting 1 28.3
2015-Mar-03 07:03 346 1 gusting 2 28.3
2015-Mar-03 06:43 283 1 gusting 4 28.9
2015-Mar-03 06:33 020 1 gusting 4 28.9
2015-Mar-03 06:13 304 1 gusting 2 30.0
2015-Mar-03 06:03 041 0 gusting 2 30.0
2015-Mar-03 05:43 037 0 gusting 2 30.0
2015-Mar-03 05:33 332 1 gusting 5 29.4
2015-Mar-03 05:13 276 1 gusting 4 29.4
2015-Mar-03 05:03 291 1 gusting 4 28.9
2015-Mar-03 04:43 145 1 gusting 4 30.0
2015-Mar-03 04:33 033 0 gusting 5 30.0
2015-Mar-03 04:13 261 3 gusting 6 31.7
2015-Mar-03 04:03 263 2 gusting 5 32.2
2015-Mar-03 03:43 273 1 gusting 4 30.6
2015-Mar-03 03:33 327 1 gusting 5 30.0
2015-Mar-03 02:43 115 2 gusting 6 28.9
2015-Mar-03 02:33 331 1 gusting 5 28.9
2015-Mar-03 02:13 100 1 gusting 4 27.2
2015-Mar-03 02:03 045 0 gusting 4 27.2
2015-Mar-03 01:43 340 1 gusting 4 26.7
2015-Mar-03 01:33 356 1 gusting 4 26.1
2015-Mar-03 01:13 092 0 gusting 4 24.4
2015-Mar-03 01:03 297 1 gusting 2 24.4
2015-Mar-03 00:43 327 1 gusting 2 24.4
2015-Mar-03 00:33 265 1 gusting 4 25.0
2015-Mar-02 23:43 022 0 gusting 1 23.9
2015-Mar-02 23:33 281 1 gusting 2 23.9
2015-Mar-02 23:13 245 0 gusting 1 22.8
2015-Mar-02 23:03 103 0 gusting 2 22.8
2015-Mar-02 22:43 340 0 gusting 1 21.7
2015-Mar-02 22:33 240 0 gusting 2 21.1
2015-Mar-02 22:13 090 0 gusting 1 21.7
2015-Mar-02 22:03 314 0 gusting 1 21.1
2015-Mar-02 21:43 258 0 gusting 1 20.6
2015-Mar-02 21:33 240 0 gusting 1 20.0
2015-Mar-02 21:13 270 18.3
2015-Mar-02 21:03 270 17.2
2015-Mar-02 20:43 259 16.7
2015-Mar-02 20:33 180 15.6
2015-Mar-02 20:13 180 14.4
2015-Mar-02 20:03 180 14.4
2015-Mar-02 19:43 158 14.4
2015-Mar-02 19:33 158 14.4
2015-Mar-02 19:13 158 14.4
2015-Mar-02 19:03 158 15.0
2015-Mar-02 18:43 158 15.0
2015-Mar-02 18:33 270 15.0
2015-Mar-02 18:13 270 15.6
2015-Mar-02 18:03 270 15.6
2015-Mar-02 17:43 112 15.6
2015-Mar-02 17:33 068 15.6
2015-Mar-02 17:13 090 16.1
2015-Mar-02 17:03 135 0 gusting 0 16.1
2015-Mar-02 16:43 045 16.1
2015-Mar-02 16:33 068 16.1
2015-Mar-02 16:13 112 16.1
2015-Mar-02 16:03 112 16.1
2015-Mar-02 15:43 114 16.7
2015-Mar-02 15:33 107 16.7
2015-Mar-02 15:13 108 0 gusting 1 16.7
2015-Mar-02 15:03 108 16.7
2015-Mar-02 14:43 068 16.7
2015-Mar-02 14:33 045 16.7
2015-Mar-02 14:13 077 0 gusting 1 16.7
2015-Mar-02 14:03 310 16.7
2015-Mar-02 13:43 085 0 gusting 1 16.7
2015-Mar-02 13:33 112 17.2
2015-Mar-02 13:13 058 0 gusting 1 17.2
2015-Mar-02 13:03 270 17.2
2015-Mar-02 12:43 072 0 gusting 1 17.2
2015-Mar-02 12:33 109 0 gusting 2 17.2
2015-Mar-02 12:13 017 0 gusting 1 17.2
2015-Mar-02 12:03 090 0 gusting 2 17.2
2015-Mar-02 11:43 111 1 gusting 1 17.8
2015-Mar-02 11:33 126 1 gusting 6 17.8
2015-Mar-02 11:13 096 1 gusting 6 17.8
2015-Mar-02 11:03 072 0 gusting 4 17.8
2015-Mar-02 10:43 092 1 gusting 7 17.8
2015-Mar-02 10:33 134 0 gusting 2 17.8
2015-Mar-02 10:13 072 1 gusting 5 18.3
2015-Mar-02 10:03 102 0 gusting 4 18.3
2015-Mar-02 09:43 109 1 gusting 5 18.9
2015-Mar-02 09:33 092 2 gusting 5 18.9
2015-Mar-02 09:13 304 2 gusting 5 19.4
2015-Mar-02 09:03 090 1 gusting 5 20.0
2015-Mar-02 08:43 022 2 gusting 6 20.6
2015-Mar-02 08:33 087 1 gusting 6 21.1
2015-Mar-02 08:13 090 0 gusting 5 22.2
2015-Mar-02 08:03 110 0 gusting 5 22.8
2015-Mar-02 07:43 081 1 gusting 6 24.4
2015-Mar-02 07:33 073 1 gusting 5 25.0
2015-Mar-02 07:13 137 1 gusting 5 25.6
2015-Mar-02 07:03 112 2 gusting 5 25.6
2015-Mar-02 06:43 112 1 gusting 6 27.2
2015-Mar-02 06:33 120 1 gusting 6 27.2
2015-Mar-02 06:13 119 1 gusting 5 28.3
2015-Mar-02 06:03 080 1 gusting 4 28.9
2015-Mar-02 05:43 308 1 gusting 6 27.2
2015-Mar-02 05:33 120 1 gusting 5 28.9
2015-Mar-02 05:13 113 1 gusting 4 30.0
2015-Mar-02 05:03 032 1 gusting 5 29.4
2015-Mar-02 04:43 081 1 gusting 6 30.0
2015-Mar-02 04:33 062 1 gusting 6 29.4
2015-Mar-02 04:13 185 0 gusting 2 30.0
2015-Mar-02 04:03 021 1 gusting 4 29.4
2015-Mar-02 03:43 039 1 gusting 5 30.0
2015-Mar-02 03:33 283 1 gusting 5 29.4
2015-Mar-02 03:13 097 1 gusting 5 29.4
2015-Mar-02 03:03 067 1 gusting 6 29.4
2015-Mar-02 02:43 297 1 gusting 4 28.9
2015-Mar-02 02:33 066 1 gusting 6 28.9
2015-Mar-02 02:13 269 1 gusting 4 27.2
2015-Mar-02 02:03 326 1 gusting 6 27.2